sat.trackr.live / text

‹ back to catalog

STARLINK-5574

NORAD 55362 · 2023-013AH

PAYLOAD ACTIVE UNKNOWN

§ Identity

Operator
Country
US
Launch date
2023-01-26
Launch site
AFETR
Launch vehicle
Mass (kg)
RCS (m²)

Purposes: comms

External: N2YO · Heavens-Above · Gunter

§ Orbital elements

Epoch: 2026-09-20T23:40:47.709120Z

Period
94.27 min
Inclination
43.0041°
Eccentricity
0.0000926
Mean motion
15.27575874 rev/d
Perigee alt
482.4 km
Apogee alt
483.7 km
Semi-major
6,861.2 km
B*
-7.1473e-7
RAAN
265.5839°
Arg perigee
312.3765°
Mean anomaly
47.7008°
Rev number
20,171

§ Raw data

STARLINK-55741 55362U 23013AH  26263.98666330 -.00000282  00000+0 -71473-6 0  99912 55362  43.0041 265.5839 0000926 312.3765  47.7008 15.27575874201715

JSON: /api/v1/satellites/55362 · /tle

For live sub-satellite position, see the globe view (requires WebGL).

§ Visibility from observer

Set your observer location to see the next 7 days of passes ≥ 10°. The values pass through the URL so the page stays shareable.

No JS? Fill the form by hand. The geolocation button needs JavaScript.